Weather History for Viroqua, WI

Change the Weather History Date:

Wednesday, July 24, 2013

  Actual Average (KLSE) Record (KLSE)
Temperature  
Mean Temperature 62 °F 74 °F  
Max Temperature 73 °F 84 °F 104 °F (1901)
Min Temperature 52 °F 63 °F 51 °F (1911)
Degree Days  
Heating Degree Days 2 0  
Month to date heating degree days 0  
Since 1 July heating degree days 0  
Cooling Degree Days 0 9  
Month to date cooling degree days 215  
Year to date cooling degree days 429  
Growing Degree Days 12 (Base 50)    
Moisture  
Dew Point 52 °F    
Average Humidity 70    
Maximum Humidity 87    
Minimum Humidity 45    
Precipitation  
Precipitation 0.00 in 0.13 in 1.71 in (1985)
Month to date precipitation 3.30  
Year to date precipitation 18.71  
Snow  
Snow 0.00 in 0.00 in 0.00 in (2002)
Month to date snowfall 0.0  
Since 1 July snowfall 0.0  
Snow Depth -    
Sea Level Pressure  
Sea Level Pressure 30.06 in    
Wind  
Wind Speed 3 mph (SE)    
Max Wind Speed 6 mph    
Max Gust Speed -    
Visibility 10 miles    
Events      
T = Trace of Precipitation, MM = Missing Value Source: NWS Daily Summary

Daily Weather History Graph

Daily Weather History Graph

Search for Another Location

Airport:

Trip Planner

Search our weather history database for the weather conditions in past years. The results will help you decide how hot, cold, wet, or windy it might be!

Date:

Astronomy

Jul. 24, 2013 Rise Set
Actual Time 5:44 AM CDT 8:34 PM CDT
Civil Twilight 5:11 AM CDT 9:08 PM CDT
Nautical Twilight 4:28 AM CDT 9:50 PM CDT
Astronomical Twilight 3:39 AM CDT 10:39 PM CDT
Moon 9:33 PM CDT (7/24) 8:11 AM CDT (7/24)
Length of Visible Light 15h 56m
Length of Day
14h 49m
Waning Gibbous, 94% of the Moon is Illuminated
Jul 24
Waning Gibbous
Jul 29
Last Quarter
Aug 6
New
Aug 14
First Quarter
Aug 20
Full

Hourly Weather History & Observations

Time (CDT) Temp. Dew Point Humidity Pressure Visibility Wind Dir Wind Speed Gust Speed Precip Events Conditions
12:15 AM 57.6 °F 53.8 °F 87% 30.03 in 10.0 mi Calm Calm - N/A   Clear
12:35 AM 57.2 °F 53.2 °F 87% 30.03 in 10.0 mi Calm Calm - N/A   Clear
12:55 AM 58.1 °F 52.0 °F 80% 30.04 in 10.0 mi Calm Calm - N/A   Clear
1:15 AM 57.6 °F 51.8 °F 81% 30.04 in 10.0 mi NE 4.6 mph - N/A   Clear
1:35 AM 57.2 °F 50.9 °F 79% 30.04 in 10.0 mi NE 5.8 mph - N/A   Clear
1:55 AM 56.5 °F 50.4 °F 80% 30.04 in 10.0 mi ENE 5.8 mph - N/A   Clear
2:15 AM 55.4 °F 50.5 °F 84% 30.03 in 10.0 mi ENE 4.6 mph - N/A   Clear
2:35 AM 54.5 °F 50.5 °F 86% 30.04 in 10.0 mi ENE 4.6 mph - N/A   Clear
2:55 AM 54.3 °F 50.2 °F 86% 30.04 in 10.0 mi ENE 4.6 mph - N/A   Clear
3:15 AM 53.8 °F 50.0 °F 87% 30.04 in 10.0 mi East 4.6 mph - N/A   Clear
3:35 AM 54.0 °F 49.6 °F 85% 30.05 in 10.0 mi Calm Calm - N/A   Clear
3:55 AM 54.0 °F 49.1 °F 84% 30.06 in 10.0 mi East 4.6 mph - N/A   Clear
4:15 AM 53.2 °F 48.9 °F 85% 30.05 in 10.0 mi East 5.8 mph - N/A   Clear
4:35 AM 53.1 °F 48.6 °F 85% 30.06 in 10.0 mi East 5.8 mph - N/A   Clear
4:55 AM 52.9 °F 48.6 °F 85% 30.06 in 10.0 mi East 4.6 mph - N/A   Clear
5:15 AM 52.7 °F 48.2 °F 85% 30.06 in 10.0 mi East 4.6 mph - N/A   Clear
5:35 AM 52.5 °F 48.2 °F 85% 30.06 in 10.0 mi East 4.6 mph - N/A   Clear
5:55 AM 52.2 °F 48.2 °F 86% 30.07 in 10.0 mi East 4.6 mph - N/A   Clear
6:15 AM 52.7 °F 48.6 °F 86% 30.07 in 10.0 mi East 5.8 mph - N/A   Clear
6:35 AM 53.2 °F 49.5 °F 87% 30.07 in 10.0 mi East 5.8 mph - N/A   Clear
6:55 AM 54.3 °F 50.5 °F 87% 30.08 in 10.0 mi East 5.8 mph - N/A   Clear
7:15 AM 56.1 °F 51.8 °F 85% 30.07 in 10.0 mi East 4.6 mph - N/A   Clear
7:35 AM 56.7 °F 52.7 °F 87% 30.08 in 10.0 mi ESE 4.6 mph - N/A   Clear
7:55 AM 58.1 °F 53.6 °F 85% 30.08 in 10.0 mi SE 5.8 mph - N/A   Clear
8:15 AM 59.0 °F 54.1 °F 84% 30.09 in 10.0 mi SE 5.8 mph - N/A   Clear
8:35 AM 59.7 °F 54.7 °F 83% 30.09 in 10.0 mi SSE 5.8 mph - N/A   Clear
8:55 AM 60.4 °F 55.4 °F 83% 30.10 in 10.0 mi SE 3.5 mph - N/A   Clear
9:15 AM 61.7 °F 55.2 °F 79% 30.10 in 10.0 mi Calm Calm - N/A   Clear
9:35 AM 62.1 °F 56.1 °F 81% 30.10 in 10.0 mi South 3.5 mph - N/A   Clear
9:55 AM 62.6 °F 55.6 °F 78% 30.11 in 10.0 mi Calm Calm - N/A   Clear
10:15 AM 64.4 °F 55.8 °F 73% 30.10 in 10.0 mi SSW 3.5 mph - N/A   Clear
10:35 AM 64.6 °F 55.0 °F 71% 30.10 in 10.0 mi South 3.5 mph - N/A   Clear
10:55 AM 64.6 °F 53.6 °F 68% 30.10 in 10.0 mi Calm Calm - N/A   Clear
11:15 AM 66.2 °F 50.9 °F 58% 30.10 in 10.0 mi Calm Calm - N/A   Scattered Clouds
11:35 AM 68.0 °F 51.6 °F 56% 30.10 in 10.0 mi Calm Calm - N/A   Clear
11:55 AM 68.5 °F 53.1 °F 58% 30.10 in 10.0 mi SSW 4.6 mph - N/A   Scattered Clouds
12:15 PM 67.6 °F 52.7 °F 59% 30.09 in 10.0 mi Calm Calm - N/A   Mostly Cloudy
12:35 PM 70.0 °F 51.3 °F 51% 30.09 in 10.0 mi WSW 3.5 mph - N/A   Mostly Cloudy
12:55 PM 68.5 °F 52.7 °F 57% 30.09 in 10.0 mi WSW 4.6 mph - N/A   Overcast
1:15 PM 69.6 °F 53.1 °F 56% 30.08 in 10.0 mi WSW 3.5 mph - N/A   Mostly Cloudy
1:35 PM 69.6 °F 53.1 °F 56% 30.08 in 10.0 mi Calm Calm - N/A   Mostly Cloudy
1:55 PM 70.2 °F 53.4 °F 55% 30.07 in 10.0 mi SW 3.5 mph - N/A   Overcast
2:15 PM 69.8 °F 51.8 °F 53% 30.07 in 10.0 mi WNW 3.5 mph - N/A   Scattered Clouds
2:35 PM 69.3 °F 52.0 °F 54% 30.07 in 10.0 mi Calm Calm - N/A   Mostly Cloudy
2:55 PM 69.6 °F 51.6 °F 53% 30.07 in 10.0 mi Calm Calm - N/A   Overcast
3:15 PM 70.2 °F 52.0 °F 52% 30.07 in 10.0 mi Calm Calm - N/A   Overcast
3:35 PM 70.5 °F 52.0 °F 52% 30.07 in 10.0 mi Calm Calm - N/A   Mostly Cloudy
3:55 PM 70.2 °F 51.8 °F 52% 30.07 in 10.0 mi Calm Calm - N/A   Mostly Cloudy
4:15 PM 69.4 °F 52.5 °F 55% 30.06 in 10.0 mi NW 4.6 mph - N/A   Mostly Cloudy
4:35 PM 71.2 °F 52.3 °F 51% 30.06 in 10.0 mi Calm Calm - N/A   Scattered Clouds
4:55 PM 73.0 °F 51.1 °F 46% 30.05 in 10.0 mi Calm Calm - N/A   Clear
5:15 PM 72.3 °F 51.1 °F 47% 30.05 in 10.0 mi Calm Calm - N/A   Scattered Clouds
5:35 PM 72.7 °F 50.4 °F 45% 30.05 in 10.0 mi Calm Calm - N/A   Scattered Clouds
5:55 PM 71.2 °F 49.1 °F 45% 30.05 in 10.0 mi West 4.6 mph - N/A   Scattered Clouds
6:15 PM 71.1 °F 50.5 °F 48% 30.05 in 10.0 mi West 5.8 mph - N/A   Overcast
6:35 PM 70.0 °F 51.3 °F 51% 30.05 in 10.0 mi WNW 4.6 mph - N/A   Overcast
6:55 PM 69.6 °F 52.3 °F 54% 30.04 in 10.0 mi WNW 3.5 mph - N/A   Overcast
7:15 PM 69.4 °F 53.8 °F 57% 30.05 in 10.0 mi WNW 3.5 mph - N/A   Overcast
7:35 PM 69.1 °F 54.1 °F 59% 30.05 in 10.0 mi Calm Calm - N/A   Overcast
7:55 PM 69.3 °F 54.9 °F 60% 30.05 in 10.0 mi Calm Calm - N/A   Overcast
8:15 PM 68.4 °F 54.7 °F 62% 30.04 in 10.0 mi Calm Calm - N/A   Overcast
8:35 PM 66.9 °F 54.7 °F 65% 30.04 in 10.0 mi ESE 3.5 mph - N/A   Scattered Clouds
8:55 PM 66.7 °F 53.1 °F 61% 30.04 in 10.0 mi Calm Calm - N/A   Clear
9:15 PM 65.3 °F 53.6 °F 66% 30.04 in 10.0 mi SSE 3.5 mph - N/A   Clear
9:35 PM 65.1 °F 54.3 °F 68% 30.04 in 10.0 mi SSE 4.6 mph - N/A   Mostly Cloudy
9:55 PM 64.8 °F 55.0 °F 71% 30.05 in 10.0 mi South 4.6 mph - N/A   Overcast
10:15 PM 64.8 °F 55.4 °F 72% 30.05 in 10.0 mi South 4.6 mph - N/A   Overcast
10:35 PM 64.6 °F 55.4 °F 72% 30.05 in 10.0 mi South 3.5 mph - N/A   Overcast
10:55 PM 65.1 °F 55.0 °F 70% 30.06 in 10.0 mi SSW 3.5 mph - N/A   Overcast
11:15 PM 64.4 °F 55.4 °F 73% 30.06 in 10.0 mi South 4.6 mph - N/A   Overcast
11:35 PM 63.9 °F 55.4 °F 74% 30.06 in 10.0 mi SSW 4.6 mph - N/A   Scattered Clouds
11:55 PM 63.0 °F 56.1 °F 78% 30.06 in 10.0 mi SSW 4.6 mph - N/A   Clear